,,PA_Meas_PMT16A,,PR_Meas_QMR101_102,,RH_Meas_QMH101,,SR_Meas_QMS101,,TA_Meas_QMH101,,GenWind,,GenWind,
time,status,PA,status,PR,status,RH,status,SR,status,TA,status,DirAvg,status,SpdAvg,
2010-07-12, 00:00:04,VALID,918.478,VALID,0,VALID,97.3358,VALID,0,VALID,20.3659,VALID,152,VALID,0.555078,
2010-07-12, 00:01:04,VALID,918.524,VALID,0,VALID,97.3281,VALID,0,VALID,20.3659,VALID,152,VALID,0.19375,
2010-07-12, 00:02:04,VALID,918.523,VALID,0,VALID,97.3358,VALID,0,VALID,20.3659,VALID,152,VALID,0.439063,
2010-07-12, 00:03:04,VALID,918.494,VALID,0,VALID,97.3358,VALID,0,VALID,20.3659,VALID,152,VALID,0.355469,
2010-07-12, 00:04:04,VALID,918.496,VALID,0,VALID,97.351,VALID,0,VALID,20.3464,VALID,152,VALID,0.68125,
2010-07-12, 00:05:04,VALID,918.473,VALID,0,VALID,97.351,VALID,0,VALID,20.3464,VALID,152,VALID,0.604297,
2010-07-12, 00:06:04,VALID,918.416,VALID,0,VALID,97.3281,VALID,0,VALID,20.3269,VALID,152,VALID,0.733203,
2010-07-12, 00:07:04,VALID,918.452,VALID,0,VALID,97.3663,VALID,0,VALID,20.3269,VALID,152,VALID,0.824609,
2010-07-12, 00:08:04,VALID,918.404,VALID,0,VALID,97.3586,VALID,0,VALID,20.3464,VALID,136,VALID,1.01289,
2010-07-12, 00:09:04,VALID,918.38,VALID,0,VALID,97.3358,VALID,0,VALID,20.3464,VALID,136,VALID,0.701172,
2010-07-12, 00:10:04,VALID,918.361,VALID,0,VALID,97.3358,VALID,0,VALID,20.3464,VALID,109,VALID,1.0082,
2010-07-12, 00:11:04,VALID,918.317,VALID,0,VALID,97.3434,VALID,0,VALID,20.3464,VALID,109,VALID,0.788281,
2010-07-12, 00:12:04,VALID,918.306,VALID,0,VALID,97.3358,VALID,0,VALID,20.3464,VALID,109,VALID,0.785547,
2010-07-12, 00:13:04,VALID,918.25,VALID,0,VALID,97.351,VALID,0,VALID,20.3464,VALID,109,VALID,0.878906,
2010-07-12, 00:14:04,VALID,918.231,VALID,0,VALID,97.3586,VALID,0,VALID,20.3464,VALID,109,VALID,0.298828,
2010-07-12, 00:15:04,VALID,918.207,VALID,0,VALID,97.3434,VALID,0,VALID,20.3269,VALID,109,VALID,0.310547,
2010-07-12, 00:16:04,VALID,918.219,VALID,0,VALID,97.351,VALID,0,VALID,20.3074,VALID,109,VALID,0.151953,
2010-07-12, 00:17:04,VALID,918.208,VALID,0,VALID,97.3663,VALID,0,VALID,20.3074,VALID,108,VALID,0.391797,
2010-07-12, 00:18:04,VALID,918.228,VALID,0,VALID,97.3586,VALID,0,VALID,20.2879,VALID,108,VALID,0.394531,
2010-07-12, 00:19:04,VALID,918.217,VALID,0,VALID,97.351,VALID,0,VALID,20.2684,VALID,110,VALID,0.622656,
2010-07-12, 00:20:04,VALID,918.234,VALID,0,VALID,97.3586,VALID,0,VALID,20.2668,VALID,109,VALID,0.721094,
2010-07-12, 00:21:04,VALID,918.225,VALID,0,VALID,97.3586,VALID,0.107441,VALID,20.2668,VALID,109,VALID,1.06914,
2010-07-12, 00:22:04,VALID,918.206,VALID,0,VALID,97.351,VALID,0,VALID,20.2668,VALID,109,VALID,1.11172,
2010-07-12, 00:23:04,VALID,918.22,VALID,0,VALID,97.3586,VALID,0,VALID,20.2263,VALID,109,VALID,1.18789,
2010-07-12, 00:24:04,VALID,918.206,VALID,0,VALID,97.351,VALID,0,VALID,20.2278,VALID,108,VALID,1.36914,
2010-07-12, 00:25:04,VALID,918.237,VALID,0,VALID,97.3586,VALID,0,VALID,20.2083,VALID,108,VALID,1.15313,
2010-07-12, 00:26:04,VALID,918.269,VALID,0,VALID,97.3586,VALID,0,VALID,20.1888,VALID,108,VALID,0.757813,
2010-07-12, 00:27:04,VALID,918.241,VALID,0,VALID,97.3586,VALID,0,VALID,20.1888,VALID,108,VALID,0.525781,
2010-07-12, 00:28:04,VALID,918.233,VALID,0,VALID,97.3815,VALID,0,VALID,20.1888,VALID,108,VALID,1.05039,
2010-07-12, 00:29:04,VALID,918.216,VALID,0,VALID,97.3663,VALID,0,VALID,20.1888,VALID,107,VALID,0.435547,
2010-07-12, 00:30:04,VALID,918.208,VALID,0,VALID,97.3815,VALID,0,VALID,20.2083,VALID,108,VALID,0.00195313,
2010-07-12, 00:31:04,VALID,918.19,VALID,0,VALID,97.3739,VALID,0,VALID,20.2083,VALID,107,VALID,0,
2010-07-12, 00:32:04,VALID,918.171,VALID,0,VALID,97.3815,VALID,0,VALID,20.2083,VALID,108,VALID,0,
2010-07-12, 00:33:04,VALID,918.178,VALID,0,VALID,97.3891,VALID,0.107441,VALID,20.2083,VALID,108,VALID,0,
2010-07-12, 00:34:04,VALID,918.201,VALID,0,VALID,97.3663,VALID,0.107441,VALID,20.2278,VALID,107,VALID,0,
2010-07-12, 00:35:04,VALID,918.222,VALID,0,VALID,97.3891,VALID,0,VALID,20.2278,VALID,109,VALID,0.675,
2010-07-12, 00:36:04,VALID,918.233,VALID,0,VALID,97.3663,VALID,0,VALID,20.1873,VALID,107,VALID,0.751562,
2010-07-12, 00:37:04,VALID,918.257,VALID,0,VALID,97.3968,VALID,0,VALID,20.1693,VALID,107,VALID,0.928516,
2010-07-12, 00:38:04,VALID,918.273,VALID,0,VALID,97.3663,VALID,0,VALID,20.1303,VALID,107,VALID,0.735937,
2010-07-12, 00:39:04,VALID,918.269,VALID,0,VALID,97.3815,VALID,0,VALID,20.1303,VALID,108,VALID,0.811719,
2010-07-12, 00:40:04,VALID,918.257,VALID,0,VALID,97.3891,VALID,0.107441,VALID,20.1303,VALID,107,VALID,0.516797,
2010-07-12, 00:41:04,VALID,918.253,VALID,0,VALID,97.3815,VALID,0,VALID,20.1498,VALID,107,VALID,0.469141,
2010-07-12, 00:42:04,VALID,918.253,VALID,0,VALID,97.3891,VALID,0,VALID,20.1303,VALID,108,VALID,0.6,
2010-07-12, 00:43:04,VALID,918.263,VALID,0,VALID,97.3739,VALID,0,VALID,20.1708,VALID,108,VALID,0.510938,
2010-07-12, 00:44:04,VALID,918.241,VALID,0,VALID,97.3891,VALID,0,VALID,20.1888,VALID,108,VALID,0.476563,
2010-07-12, 00:45:04,VALID,918.234,VALID,0,VALID,97.3815,VALID,0,VALID,20.2083,VALID,108,VALID,0.670703,
2010-07-12, 00:46:04,VALID,918.187,VALID,0,VALID,97.3891,VALID,0,VALID,20.2278,VALID,108,VALID,0.490234,
2010-07-12, 00:47:04,VALID,918.191,VALID,0,VALID,97.3968,VALID,0,VALID,20.2668,VALID,108,VALID,0.833594,
2010-07-12, 00:48:04,VALID,918.225,VALID,0,VALID,97.3891,VALID,0,VALID,20.2668,VALID,108,VALID,0.505859,
2010-07-12, 00:49:04,VALID,918.213,VALID,0,VALID,97.3891,VALID,0,VALID,20.2668,VALID,108,VALID,0.357422,
2010-07-12, 00:50:04,VALID,918.228,VALID,0,VALID,97.3968,VALID,0,VALID,20.2653,VALID,108,VALID,0.626953,
2010-07-12, 00:51:04,VALID,918.221,VALID,0,VALID,97.4044,VALID,0,VALID,20.2668,VALID,108,VALID,0.483984,
2010-07-12, 00:52:04,VALID,918.192,VALID,0,VALID,97.412,VALID,0,VALID,20.2863,VALID,108,VALID,0.249609,
2010-07-12, 00:53:04,VALID,918.152,VALID,0,VALID,97.3739,VALID,0,VALID,20.2863,VALID,108,VALID,0.378516,
2010-07-12, 00:54:04,VALID,918.127,VALID,0,VALID,97.3968,VALID,0,VALID,20.2863,VALID,109,VALID,0.4375,
2010-07-12, 00:55:04,VALID,918.114,VALID,0,VALID,97.3815,VALID,0,VALID,20.2668,VALID,109,VALID,0.195313,
2010-07-12, 00:56:04,VALID,918.091,VALID,0,VALID,97.3968,VALID,0,VALID,20.2668,VALID,108,VALID,0.144531,
2010-07-12, 00:57:04,VALID,918.052,VALID,0,VALID,97.3968,VALID,0,VALID,20.2863,VALID,108,VALID,0.39375,
2010-07-12, 00:58:04,VALID,918.073,VALID,0,VALID,97.412,VALID,0,VALID,20.2879,VALID,109,VALID,0.876953,
2010-07-12, 00:59:04,VALID,918.073,VALID,0,VALID,97.3891,VALID,0,VALID,20.2473,VALID,109,VALID,0.358203,
2010-07-12, 01:00:04,VALID,918.061,VALID,0,VALID,97.3891,VALID,0,VALID,20.2668,VALID,109,VALID,0.0585938,
2010-07-12, 01:01:04,VALID,918.046,VALID,0,VALID,97.3968,VALID,0,VALID,20.2473,VALID,108,VALID,0.150391,
2010-07-12, 01:02:04,VALID,918.02,VALID,0,VALID,97.4196,VALID,0,VALID,20.2668,VALID,108,VALID,0.110547,
2010-07-12, 01:03:04,VALID,918.018,VALID,0,VALID,97.3968,VALID,0,VALID,20.2668,VALID,108,VALID,0.296484,
2010-07-12, 01:04:04,VALID,918.018,VALID,0,VALID,97.3891,VALID,0,VALID,20.2863,VALID,108,VALID,0.0578125,
2010-07-12, 01:05:04,VALID,918.038,VALID,0,VALID,97.4196,VALID,0,VALID,20.2668,VALID,108,VALID,0.390625,
2010-07-12, 01:06:04,VALID,917.986,VALID,0,VALID,97.4044,VALID,0,VALID,20.2473,VALID,108,VALID,0.445313,
2010-07-12, 01:07:04,VALID,917.987,VALID,0,VALID,97.3968,VALID,0,VALID,20.2473,VALID,108,VALID,0.302734,
2010-07-12, 01:08:04,VALID,917.964,VALID,0,VALID,97.3891,VALID,0,VALID,20.2473,VALID,108,VALID,0.000390625,
2010-07-12, 01:09:04,VALID,917.954,VALID,0,VALID,97.3891,VALID,0,VALID,20.2668,VALID,108,VALID,0,
2010-07-12, 01:10:04,VALID,917.939,VALID,0,VALID,97.3891,VALID,0,VALID,20.2879,VALID,108,VALID,0,
2010-07-12, 01:11:04,VALID,917.916,VALID,0,VALID,97.3968,VALID,0,VALID,20.3058,VALID,108,VALID,0,
2010-07-12, 01:12:04,VALID,917.905,VALID,0,VALID,97.3968,VALID,0,VALID,20.3448,VALID,108,VALID,0.392969,
2010-07-12, 01:13:04,VALID,917.896,VALID,0,VALID,97.3815,VALID,0.107441,VALID,20.3448,VALID,108,VALID,0.405469,
2010-07-12, 01:14:04,VALID,917.873,VALID,0,VALID,97.4044,VALID,0,VALID,20.3448,VALID,108,VALID,0.459766,
2010-07-12, 01:15:04,VALID,917.843,VALID,0,VALID,97.3968,VALID,0,VALID,20.3643,VALID,108,VALID,0.512109,
2010-07-12, 01:16:04,VALID,917.846,VALID,0,VALID,97.3968,VALID,0,VALID,20.3643,VALID,108,VALID,0.7375,
2010-07-12, 01:17:04,VALID,917.81,VALID,0,VALID,97.412,VALID,0,VALID,20.3253,VALID,108,VALID,0.605078,
2010-07-12, 01:18:04,VALID,917.817,VALID,0,VALID,97.3968,VALID,0.107441,VALID,20.3058,VALID,108,VALID,0.862109,
2010-07-12, 01:19:04,VALID,917.804,VALID,0,VALID,97.4044,VALID,0,VALID,20.2653,VALID,108,VALID,0.605469,
2010-07-12, 01:20:04,VALID,917.781,VALID,0,VALID,97.412,VALID,0,VALID,20.2863,VALID,108,VALID,0.739453,
2010-07-12, 01:21:04,VALID,917.796,VALID,0,VALID,97.412,VALID,0,VALID,20.2653,VALID,108,VALID,0.716797,
2010-07-12, 01:22:05,VALID,917.808,VALID,0,VALID,97.4044,VALID,0.107441,VALID,20.2653,VALID,108,VALID,0.584766,
2010-07-12, 01:23:05,VALID,917.805,VALID,0,VALID,97.412,VALID,0.107441,VALID,20.2863,VALID,108,VALID,0.0300781,
2010-07-12, 01:24:05,VALID,917.829,VALID,0,VALID,97.3968,VALID,0.107441,VALID,20.2863,VALID,108,VALID,0,
2010-07-12, 01:25:05,VALID,917.855,VALID,0,VALID,97.3968,VALID,0,VALID,20.2863,VALID,108,VALID,0,
2010-07-12, 01:26:05,VALID,917.85,VALID,0,VALID,97.4044,VALID,0,VALID,20.2863,VALID,108,VALID,0,
2010-07-12, 01:27:05,VALID,917.882,VALID,0,VALID,97.3739,VALID,0,VALID,20.3058,VALID,108,VALID,0.0855469,
2010-07-12, 01:28:05,VALID,917.879,VALID,0,VALID,97.412,VALID,0,VALID,20.2473,VALID,108,VALID,0.321094,
2010-07-12, 01:29:05,VALID,917.874,VALID,0,VALID,97.4196,VALID,0,VALID,20.2473,VALID,108,VALID,0.401563,
2010-07-12, 01:30:05,VALID,917.862,VALID,0,VALID,97.412,VALID,0.107441,VALID,20.2473,VALID,108,VALID,0.395703,
2010-07-12, 01:31:05,VALID,917.88,VALID,0,VALID,97.3968,VALID,0,VALID,20.2489,VALID,108,VALID,0.300391,
2010-07-12, 01:32:05,VALID,917.837,VALID,0,VALID,97.3968,VALID,0,VALID,20.2473,VALID,108,VALID,0.482422,
2010-07-12, 01:33:05,VALID,917.821,VALID,0,VALID,97.4044,VALID,0,VALID,20.2489,VALID,108,VALID,0.288672,
2010-07-12, 01:34:05,VALID,917.819,VALID,0,VALID,97.412,VALID,0,VALID,20.2489,VALID,108,VALID,0.164063,
2010-07-12, 01:35:05,VALID,917.814,VALID,0,VALID,97.3891,VALID,0,VALID,20.2489,VALID,108,VALID,0.467578,
2010-07-12, 01:36:05,VALID,917.762,VALID,0,VALID,97.4196,VALID,0,VALID,20.2684,VALID,108,VALID,0.10625,
2010-07-12, 01:37:05,VALID,917.782,VALID,0,VALID,97.4196,VALID,0,VALID,20.2668,VALID,108,VALID,0,
2010-07-12, 01:38:05,VALID,917.779,VALID,0,VALID,97.4196,VALID,0,VALID,20.2879,VALID,108,VALID,0,
2010-07-12, 01:39:05,VALID,917.762,VALID,0,VALID,97.4196,VALID,0,VALID,20.3074,VALID,108,VALID,0.417969,
2010-07-12, 01:40:05,VALID,917.792,VALID,0,VALID,97.3891,VALID,0,VALID,20.3074,VALID,108,VALID,0.402734,
2010-07-12, 01:41:05,VALID,917.804,VALID,0,VALID,97.4273,VALID,0,VALID,20.3074,VALID,108,VALID,0.523438,
2010-07-12, 01:42:05,VALID,917.771,VALID,0,VALID,97.4044,VALID,0,VALID,20.3074,VALID,108,VALID,0.547656,
2010-07-12, 01:43:05,VALID,917.784,VALID,0,VALID,97.4196,VALID,0,VALID,20.2879,VALID,108,VALID,0.680078,
2010-07-12, 01:44:05,VALID,917.788,VALID,0,VALID,97.4349,VALID,0,VALID,20.2879,VALID,108,VALID,0.420312,
2010-07-12, 01:45:05,VALID,917.767,VALID,0,VALID,97.3815,VALID,0,VALID,20.2879,VALID,108,VALID,0.385156,
2010-07-12, 01:46:05,VALID,917.733,VALID,0,VALID,97.3891,VALID,0,VALID,20.2473,VALID,108,VALID,0.0328125,
2010-07-12, 01:47:05,VALID,917.708,VALID,0,VALID,97.4196,VALID,0,VALID,20.2668,VALID,108,VALID,0,
2010-07-12, 01:48:05,VALID,917.661,VALID,0,VALID,97.4196,VALID,0.107441,VALID,20.2473,VALID,108,VALID,0.171094,
2010-07-12, 01:49:05,VALID,917.61,VALID,0,VALID,97.4273,VALID,0,VALID,20.2473,VALID,108,VALID,0.483203,
2010-07-12, 01:50:05,VALID,917.586,VALID,0,VALID,97.4196,VALID,0,VALID,20.2668,VALID,108,VALID,0.405859,
2010-07-12, 01:51:05,VALID,917.544,VALID,0,VALID,97.412,VALID,0,VALID,20.2473,VALID,108,VALID,0.501562,
2010-07-12, 01:52:05,VALID,917.566,VALID,0,VALID,97.4273,VALID,0,VALID,20.2278,VALID,108,VALID,0.320703,
2010-07-12, 01:53:05,VALID,917.527,VALID,0,VALID,97.4196,VALID,0,VALID,20.2473,VALID,108,VALID,0.273047,
2010-07-12, 01:54:05,VALID,917.517,VALID,0,VALID,97.4349,VALID,0,VALID,20.2668,VALID,108,VALID,0,
2010-07-12, 01:55:05,VALID,917.538,VALID,0,VALID,97.412,VALID,0,VALID,20.2668,VALID,108,VALID,0,
2010-07-12, 01:56:05,VALID,917.554,VALID,0,VALID,97.4501,VALID,0,VALID,20.2668,VALID,108,VALID,0,
2010-07-12, 01:57:05,VALID,917.533,VALID,0,VALID,97.4273,VALID,0,VALID,20.2879,VALID,108,VALID,0,
2010-07-12, 01:58:05,VALID,917.532,VALID,0,VALID,97.4273,VALID,0.107441,VALID,20.2863,VALID,108,VALID,0,
2010-07-12, 01:59:05,VALID,917.55,VALID,0,VALID,97.4196,VALID,0,VALID,20.3253,VALID,108,VALID,0,
2010-07-12, 02:00:05,VALID,917.517,VALID,0,VALID,97.4196,VALID,0,VALID,20.3253,VALID,108,VALID,0,
2010-07-12, 02:01:05,VALID,917.567,VALID,0,VALID,97.4196,VALID,0.107441,VALID,20.3448,VALID,108,VALID,0.0535156,
2010-07-12, 02:02:05,VALID,917.529,VALID,0,VALID,97.4196,VALID,0,VALID,20.3253,VALID,108,VALID,0,
2010-07-12, 02:03:05,VALID,917.545,VALID,0,VALID,97.412,VALID,0,VALID,20.2863,VALID,108,VALID,0,
2010-07-12, 02:04:05,VALID,917.539,VALID,0,VALID,97.4196,VALID,0,VALID,20.2863,VALID,108,VALID,0,
2010-07-12, 02:05:05,VALID,917.505,VALID,0,VALID,97.4349,VALID,0,VALID,20.3058,VALID,108,VALID,0,
2010-07-12, 02:06:05,VALID,917.542,VALID,0,VALID,97.4349,VALID,0,VALID,20.3058,VALID,108,VALID,0,
2010-07-12, 02:07:05,VALID,917.557,VALID,0,VALID,97.4273,VALID,0,VALID,20.3253,VALID,108,VALID,0,
2010-07-12, 02:08:05,VALID,917.544,VALID,0,VALID,97.4349,VALID,0.107441,VALID,20.3253,VALID,108,VALID,0,
2010-07-12, 02:09:05,VALID,917.586,VALID,0,VALID,97.412,VALID,0,VALID,20.3464,VALID,108,VALID,0,
2010-07-12, 02:10:05,VALID,917.586,VALID,0,VALID,97.4044,VALID,0,VALID,20.3058,VALID,108,VALID,0,
2010-07-12, 02:11:05,VALID,917.568,VALID,0,VALID,97.4273,VALID,0,VALID,20.3058,VALID,108,VALID,0,
2010-07-12, 02:12:05,VALID,917.581,VALID,0,VALID,97.4273,VALID,0,VALID,20.3253,VALID,108,VALID,0,
2010-07-12, 02:13:05,VALID,917.595,VALID,0,VALID,97.4273,VALID,0,VALID,20.3253,VALID,108,VALID,0,
2010-07-12, 02:14:05,VALID,917.595,VALID,0,VALID,97.412,VALID,0,VALID,20.3058,VALID,108,VALID,0,
2010-07-12, 02:15:05,VALID,917.568,VALID,0,VALID,97.412,VALID,0,VALID,20.2863,VALID,108,VALID,0,
2010-07-12, 02:16:05,VALID,917.594,VALID,0,VALID,97.4349,VALID,0,VALID,20.3058,VALID,108,VALID,0,
2010-07-12, 02:17:05,VALID,917.599,VALID,0,VALID,97.412,VALID,0,VALID,20.3253,VALID,108,VALID,0,
2010-07-12, 02:18:05,VALID,917.592,VALID,0,VALID,97.412,VALID,0,VALID,20.3659,VALID,108,VALID,0,
2010-07-12, 02:19:05,VALID,917.558,VALID,0,VALID,97.4196,VALID,0.107441,VALID,20.3448,VALID,108,VALID,0.18125,
2010-07-12, 02:20:05,VALID,917.533,VALID,0,VALID,97.4273,VALID,0,VALID,20.3269,VALID,108,VALID,0.646875,
2010-07-12, 02:21:05,VALID,917.516,VALID,0,VALID,97.4196,VALID,0,VALID,20.3058,VALID,108,VALID,0.946484,
2010-07-12, 02:22:05,VALID,917.473,VALID,0,VALID,97.4349,VALID,0,VALID,20.3058,VALID,108,VALID,0.639844,
2010-07-12, 02:23:05,VALID,917.455,VALID,0,VALID,97.4044,VALID,0,VALID,20.2473,VALID,108,VALID,1.18086,
2010-07-12, 02:24:05,VALID,917.386,VALID,0,VALID,97.4349,VALID,0,VALID,20.2473,VALID,108,VALID,1.05977,
2010-07-12, 02:25:05,VALID,917.39,VALID,0,VALID,97.4273,VALID,0.107441,VALID,20.2879,VALID,108,VALID,0.905078,
2010-07-12, 02:26:05,VALID,917.346,VALID,0,VALID,97.4196,VALID,0.107441,VALID,20.3058,VALID,108,VALID,0.969922,
2010-07-12, 02:27:05,VALID,917.357,VALID,0,VALID,97.4196,VALID,0,VALID,20.2668,VALID,108,VALID,1.22773,
2010-07-12, 02:28:05,VALID,917.349,VALID,0,VALID,97.412,VALID,0.107441,VALID,20.2863,VALID,108,VALID,1.33867,
2010-07-12, 02:29:05,VALID,917.354,VALID,0,VALID,97.4196,VALID,0,VALID,20.3058,VALID,108,VALID,1.07344,
2010-07-12, 02:30:05,VALID,917.337,VALID,0,VALID,97.412,VALID,0,VALID,20.3253,VALID,108,VALID,0.738281,
2010-07-12, 02:31:05,VALID,917.302,VALID,0,VALID,97.4044,VALID,0,VALID,20.3058,VALID,16,VALID,0.789844,
2010-07-12, 02:32:05,VALID,917.311,VALID,0,VALID,97.4044,VALID,0,VALID,20.2668,VALID,16,VALID,0.853906,
2010-07-12, 02:33:05,VALID,917.294,VALID,0,VALID,97.412,VALID,0,VALID,20.2473,VALID,16,VALID,0.994531,
2010-07-12, 02:34:05,VALID,917.3,VALID,0,VALID,97.3891,VALID,0,VALID,20.2278,VALID,15,VALID,0.98125,
2010-07-12, 02:35:05,VALID,917.27,VALID,0,VALID,97.3968,VALID,0,VALID,20.2278,VALID,351,VALID,1.00273,
2010-07-12, 02:36:05,VALID,917.281,VALID,0,VALID,97.4196,VALID,0,VALID,20.2278,VALID,351,VALID,0.747266,
2010-07-12, 02:37:05,VALID,917.25,VALID,0,VALID,97.412,VALID,0,VALID,20.2473,VALID,351,VALID,0.514844,
2010-07-12, 02:38:05,VALID,917.275,VALID,0,VALID,97.412,VALID,0,VALID,20.2473,VALID,351,VALID,0.973828,
2010-07-12, 02:39:05,VALID,917.229,VALID,0,VALID,97.4044,VALID,0,VALID,20.2668,VALID,351,VALID,0.984766,
2010-07-12, 02:40:05,VALID,917.277,VALID,0,VALID,97.3968,VALID,0.107441,VALID,20.2668,VALID,351,VALID,0.945313,
2010-07-12, 02:41:05,VALID,917.306,VALID,0,VALID,97.4044,VALID,0.107441,VALID,20.2653,VALID,351,VALID,0.851172,
2010-07-12, 02:42:05,VALID,917.281,VALID,0,VALID,97.4044,VALID,0,VALID,20.2473,VALID,351,VALID,0.0898438,
2010-07-12, 02:43:05,VALID,917.264,VALID,0,VALID,97.4044,VALID,0.107441,VALID,20.2473,VALID,351,VALID,0.251563,
2010-07-12, 02:44:05,VALID,917.284,VALID,0,VALID,97.4196,VALID,0,VALID,20.2863,VALID,351,VALID,0.273438,
2010-07-12, 02:45:05,VALID,917.293,VALID,0,VALID,97.3968,VALID,0.107441,VALID,20.3058,VALID,351,VALID,0.309375,
2010-07-12, 02:46:05,VALID,917.309,VALID,0,VALID,97.3586,VALID,0.107441,VALID,20.3058,VALID,351,VALID,0.492578,
2010-07-12, 02:47:05,VALID,917.314,VALID,0,VALID,97.3968,VALID,0,VALID,20.2653,VALID,351,VALID,0.00195313,
2010-07-12, 02:48:05,VALID,917.318,VALID,0,VALID,97.3891,VALID,0.107441,VALID,20.2863,VALID,351,VALID,0.595703,
2010-07-12, 02:49:05,VALID,917.323,VALID,0,VALID,97.3891,VALID,0,VALID,20.2863,VALID,351,VALID,1.20625,
2010-07-12, 02:50:05,VALID,917.321,VALID,0,VALID,97.3663,VALID,0,VALID,20.2278,VALID,351,VALID,0.494531,
2010-07-12, 02:51:05,VALID,917.318,VALID,0,VALID,97.3891,VALID,0.107441,VALID,20.2684,VALID,351,VALID,0.733594,
2010-07-12, 02:52:05,VALID,917.31,VALID,0,VALID,97.3739,VALID,0.107441,VALID,20.2458,VALID,351,VALID,0.888672,
2010-07-12, 02:53:05,VALID,917.311,VALID,0,VALID,97.3739,VALID,0,VALID,20.2473,VALID,351,VALID,0.441406,
2010-07-12, 02:54:05,VALID,917.297,VALID,0,VALID,97.3663,VALID,0,VALID,20.2668,VALID,351,VALID,0.244141,
2010-07-12, 02:55:05,VALID,917.268,VALID,0,VALID,97.3739,VALID,0,VALID,20.2879,VALID,351,VALID,0.869141,
2010-07-12, 02:56:05,VALID,917.298,VALID,0,VALID,97.3586,VALID,0,VALID,20.2473,VALID,351,VALID,0.761328,
2010-07-12, 02:57:05,VALID,917.225,VALID,0,VALID,97.3739,VALID,0,VALID,20.2473,VALID,351,VALID,0.723828,
2010-07-12, 02:58:05,VALID,917.199,VALID,0,VALID,97.3891,VALID,0.107441,VALID,20.2278,VALID,351,VALID,0.573438,
2010-07-12, 02:59:05,VALID,917.212,VALID,0,VALID,97.3891,VALID,0,VALID,20.2278,VALID,351,VALID,0.608984,
2010-07-12, 03:00:05,VALID,917.167,VALID,0,VALID,97.3815,VALID,0.107441,VALID,20.2473,VALID,351,VALID,0.605078,
2010-07-12, 03:01:05,VALID,917.152,VALID,0,VALID,97.3891,VALID,0,VALID,20.2293,VALID,351,VALID,0.325781,
2010-07-12, 03:02:05,VALID,917.141,VALID,0,VALID,97.3663,VALID,0,VALID,20.2293,VALID,351,VALID,0,
2010-07-12, 03:03:05,VALID,917.143,VALID,0,VALID,97.3891,VALID,0,VALID,20.2489,VALID,351,VALID,0,
2010-07-12, 03:04:05,VALID,917.133,VALID,0,VALID,97.3815,VALID,0,VALID,20.2489,VALID,351,VALID,0,
2010-07-12, 03:05:05,VALID,917.116,VALID,0,VALID,97.3663,VALID,0,VALID,20.2684,VALID,351,VALID,0,
2010-07-12, 03:06:05,VALID,917.136,VALID,0,VALID,97.3663,VALID,0,VALID,20.2489,VALID,351,VALID,0,
2010-07-12, 03:07:05,VALID,917.11,VALID,0,VALID,97.3891,VALID,0,VALID,20.2684,VALID,351,VALID,0.189453,
2010-07-12, 03:08:05,VALID,917.11,VALID,0,VALID,97.3891,VALID,0,VALID,20.2684,VALID,351,VALID,0.0683594,
2010-07-12, 03:09:05,VALID,917.117,VALID,0,VALID,97.3815,VALID,0,VALID,20.2473,VALID,351,VALID,0,
2010-07-12, 03:10:05,VALID,917.093,VALID,0,VALID,97.3739,VALID,0,VALID,20.2879,VALID,351,VALID,0.0703125,
2010-07-12, 03:11:05,VALID,917.096,VALID,0,VALID,97.3739,VALID,0,VALID,20.3074,VALID,351,VALID,0.732031,
2010-07-12, 03:12:05,VALID,917.069,VALID,0,VALID,97.3739,VALID,0,VALID,20.3269,VALID,351,VALID,0.847266,
2010-07-12, 03:13:05,VALID,917.07,VALID,0,VALID,97.3739,VALID,0,VALID,20.3074,VALID,351,VALID,0.876562,
2010-07-12, 03:14:05,VALID,917.054,VALID,0,VALID,97.351,VALID,0,VALID,20.2879,VALID,351,VALID,0.539063,
2010-07-12, 03:15:05,VALID,917.065,VALID,0,VALID,97.3815,VALID,0,VALID,20.2879,VALID,351,VALID,0.628906,
2010-07-12, 03:16:05,VALID,917.056,VALID,0,VALID,97.3815,VALID,0,VALID,20.3058,VALID,351,VALID,0.289844,
2010-07-12, 03:17:05,VALID,917.035,VALID,0,VALID,97.3815,VALID,0,VALID,20.3253,VALID,351,VALID,0,
2010-07-12, 03:18:05,VALID,916.955,VALID,0,VALID,97.3586,VALID,0.107441,VALID,20.3238,VALID,351,VALID,0.216016,
2010-07-12, 03:19:05,VALID,916.951,VALID,0,VALID,97.3739,VALID,0,VALID,20.3043,VALID,351,VALID,0.00585938,
2010-07-12, 03:20:05,VALID,916.885,VALID,0,VALID,97.3663,VALID,0,VALID,20.3058,VALID,351,VALID,0.283594,
2010-07-12, 03:21:05,VALID,916.845,VALID,0,VALID,97.3434,VALID,0.107441,VALID,20.2653,VALID,351,VALID,0.36875,
2010-07-12, 03:22:05,VALID,916.829,VALID,0,VALID,97.3815,VALID,0,VALID,20.2473,VALID,351,VALID,0.232031,
2010-07-12, 03:23:05,VALID,916.808,VALID,0,VALID,97.3663,VALID,0,VALID,20.2473,VALID,351,VALID,0.121094,
2010-07-12, 03:24:05,VALID,916.782,VALID,0,VALID,97.3663,VALID,0,VALID,20.2473,VALID,350,VALID,0,
2010-07-12, 03:25:05,VALID,916.789,VALID,0,VALID,97.3663,VALID,0,VALID,20.2263,VALID,351,VALID,0.519922,
2010-07-12, 03:26:05,VALID,916.784,VALID,0,VALID,97.3663,VALID,0,VALID,20.2473,VALID,351,VALID,0.635547,
2010-07-12, 03:27:05,VALID,916.769,VALID,0,VALID,97.351,VALID,0,VALID,20.2083,VALID,351,VALID,0.701563,
2010-07-12, 03:28:05,VALID,916.789,VALID,0,VALID,97.3586,VALID,0,VALID,20.1873,VALID,351,VALID,0.768359,
2010-07-12, 03:29:05,VALID,916.732,VALID,0,VALID,97.3586,VALID,0.107441,VALID,20.2083,VALID,351,VALID,0.519531,
2010-07-12, 03:30:05,VALID,916.744,VALID,0,VALID,97.351,VALID,0,VALID,20.2083,VALID,351,VALID,0.668359,
2010-07-12, 03:31:05,VALID,916.738,VALID,0,VALID,97.3663,VALID,0.107441,VALID,20.2083,VALID,351,VALID,0.325781,
2010-07-12, 03:32:05,VALID,916.781,VALID,0,VALID,97.3434,VALID,0.107441,VALID,20.1888,VALID,351,VALID,0.339063,
2010-07-12, 03:33:05,VALID,916.75,VALID,0,VALID,97.3586,VALID,0.107441,VALID,20.2068,VALID,351,VALID,0.436328,
2010-07-12, 03:34:05,VALID,916.767,VALID,0,VALID,97.3586,VALID,0,VALID,20.2083,VALID,351,VALID,0.534766,
2010-07-12, 03:35:05,VALID,916.729,VALID,0,VALID,97.3663,VALID,0,VALID,20.2263,VALID,351,VALID,0.13125,
2010-07-12, 03:36:05,VALID,916.759,VALID,0,VALID,97.3739,VALID,0,VALID,20.2068,VALID,350,VALID,0,
2010-07-12, 03:37:05,VALID,916.763,VALID,0,VALID,97.351,VALID,0,VALID,20.2473,VALID,351,VALID,0,
2010-07-12, 03:38:05,VALID,916.758,VALID,0,VALID,97.3586,VALID,0,VALID,20.2278,VALID,351,VALID,0.426562,
2010-07-12, 03:39:05,VALID,916.765,VALID,0,VALID,97.3739,VALID,0,VALID,20.2278,VALID,351,VALID,0.489453,
2010-07-12, 03:40:05,VALID,916.795,VALID,0,VALID,97.3586,VALID,0.107441,VALID,20.1873,VALID,351,VALID,0.394531,
2010-07-12, 03:41:05,VALID,916.8,VALID,0,VALID,97.3586,VALID,0,VALID,20.2083,VALID,351,VALID,0.38125,
2010-07-12, 03:42:05,VALID,916.778,VALID,0,VALID,97.3358,VALID,0,VALID,20.2083,VALID,351,VALID,0.472656,
2010-07-12, 03:43:05,VALID,916.781,VALID,0,VALID,97.3586,VALID,0.107441,VALID,20.1483,VALID,351,VALID,0.330078,
2010-07-12, 03:44:05,VALID,916.761,VALID,0,VALID,97.3586,VALID,0.107441,VALID,20.1498,VALID,351,VALID,0.439844,
2010-07-12, 03:45:05,VALID,916.73,VALID,0,VALID,97.3434,VALID,0,VALID,20.1693,VALID,351,VALID,0.525,